Simultaneous Nadir Overpasses (SNOs) Predictions

Prediction of SNOs between GOES-16 and METOP-B Satellite Orbit:

Table of predicted SNOs for the next 14.0 days since TLE Epoch: 8/3/2018
Index Date Time (GOES-16) GOES-16 Lat,Lon METOP-B Lat,Lon Distance(km) Time Diff (sec)
1 08/04/2018 14:26:13 0.00, -75.24 -0.11, -74.84 45.82 80
2 08/06/2018 02:47:53 -0.00, -75.25 -0.91, -79.44 477.07 80
3 08/07/2018 02:24:32 -0.00, -75.26 0.20, -74.44 93.38 80
4 08/08/2018 14:46:01 0.01, -75.29 0.85, -79.00 423.13 80
5 08/09/2018 14:22:41 0.00, -75.30 -0.26, -74.00 147.49 80
6 08/11/2018 02:44:20 -0.01, -75.31 -0.76, -78.60 374.85 80
7 08/12/2018 02:21:01 -0.00, -75.33 0.40, -73.61 196.11 80
8 08/13/2018 14:42:30 0.00, -75.37 0.64, -78.17 319.17 80
9 08/14/2018 14:19:11 -0.00, -75.39 -0.52, -73.18 252.35 80
10 08/16/2018 02:40:49 -0.00, -75.42 -0.56, -77.77 268.37 80
11 08/17/2018 02:17:29 0.00, -75.44 0.61, -72.78 303.56 80




NCC Satellite Simultaneous Nadir Overpasses (SNOs) Prediction Service
